STARLINK-2473 (48131 NORAD) Tracking and Keplerian Element Data

This shows tracking and keplerian element data for the satellite.

Feedback or suggestion? Click here.




ElementValue
Catalog48131
NameSTARLINK-2473
Epoch Orbit180
Epoch Day136.75001157
Epoch Year2021
RAAN146.2333
Inclination53.0475
Eccentricity0.0002455
Argument of Perigee24.939
Mean Anonmoly10.5104
Mean Motion15.73253599
Decay Rate5.15E-05
L11 48131U 21027AR 21136.75001157 .00005150 00000-0 41005-4 0 9993
L22 48131 53.0475 146.2333 0002455 24.9390 10.5104 15.73253599 1807

Live tracking and technical data element details for STARLINK-2473 (NORAD 48131). STARLINK-2473 can be tracked NOW for your location showing map with azimuth and elevation plus other details from your city location.

Track the satellite on the map from your city or location and see movement details for azimuth, elevation, latitude, longitude, range, height, and movement on the map or in text.







IsCatalogInMostPopularTable: catalog: 48131, numindb: 16
Update: records affected: 1



GetName: 48131 STARLINK-2473

Hit Count: updated at: Mon, 17 May 2021 16:05:06 GMT